Location: Biltmore Gardens
(41.6070°N, 83.4666°W)
Time: 14:43:57
(UTC+00:00)

Meteor 1-21 - Pass Details

Date: 14 July 2020
Orbit: 845 x 887 km, 81.2° (Epoch: 12 August)

Event Time Altitude Azimuth Distance (km) Brightness Sun altitude
Rises 09:20:13 0° 349° (N) 3,491 7.8 -8.8°
Reaches altitude 10° 09:22:40 10° 349° (NNW) 2,553 7.1 -8.5°
Maximum altitude 09:28:30 82° 262° (W) 900 4.3 -7.6°
Drops below altitude 10° 09:34:18 10° 175° (S) 2,543 6.4 -6.8°
Sets 09:36:44 0° 175° (S) 3,477 7.1 -6.4°
